Regional Weather Roundup
Issued by NWS Raleigh/Durham, NC

Home | Current Version | Previous Version | Text Only | Print | Product List | Glossary On
Versions: 1 2 3 4 5 6 7 8 9 10 11 12 13 14 15 16 17 18 19 20 21 22 23 24 25 26 27
000
ASUS42 KRAH 250010
RWRRAH
NORTH CAROLINA WEATHER ROUNDUP
NATIONAL WEATHER SERVICE RALEIGH NC
800 PM EDT FRI OCT 24 2014

NOTE: "FAIR" INDICATES FEW OR NO CLOUDS BELOW 12,000 FEET WITH NO
SIGNIFICANT WEATHER AND/OR OBSTRUCTIONS TO VISIBILITY.

NCZ001-053-055-056-065-067-250100-
WESTERN NORTH CAROLINA

CITY           SKY/WX    TMP DP  RH WIND       PRES   REMARKS
ASHEVILLE      CLEAR     56  35  45 N8        30.05R
JEFFERSON      CLEAR     54  22  28 NW7G16    30.05R
MORGANTON      PTCLDY    47  46  98 CALM      30.06R
HICKORY        PTCLDY    55  44  66 CALM      30.01R
RUTHERFORDTON  CLEAR     54  47  77 CALM      30.02R
MOUNT AIRY     PTCLDY    55  44  68 CALM      30.02R
BOONE          CLEAR     52  34  51 W9        30.07R
$$

NCZ021-022-025-041-071-084-088-250100-
CENTRAL NORTH CAROLINA

CITY           SKY/WX    TMP DP  RH WIND       PRES   REMARKS
CHARLOTTE      MOCLDY    57  44  62 W6        30.00R
GREENSBORO     MOCLDY    57  41  55 CALM      29.98R
WINSTON-SALEM  PTCLDY    54  42  64 CALM      30.00R
RALEIGH-DURHAM MOCLDY    55  48  77 CALM      29.98S
FORT BRAGG     MOCLDY    57  53  87 CALM      29.97S
FAYETTEVILLE   PTCLDY    60  49  66 CALM      29.97S
BURLINGTON     PTCLDY    53  45  74 CALM      29.97S
LAURINBURG     MOCLDY    55  49  80 S3        29.99R
$$

NCZ011-015-027-028-043-044-047-080-103-250100-
NORTHEASTERN NORTH CAROLINA

CITY           SKY/WX    TMP DP  RH WIND       PRES   REMARKS
ROCKY MT-WILSO PTCLDY    52  49  89 CALM      29.97S
GREENVILLE     PTCLDY    54  54 100 CALM      29.99R
WASHINGTON     PTCLDY    55  51  85 CALM      29.97R
ELIZABETH CITY PTCLDY    55  47  74 W5        29.94S
MANTEO         CLEAR     60  54  79 W3        29.94S
CAPE HATTERAS  CLEAR     59  55  87 W5        29.95R
$$

NCZ078-087-090-091-093-098-101-250100-
SOUTHEASTERN NORTH CAROLINA

CITY           SKY/WX    TMP DP  RH WIND       PRES   REMARKS
LUMBERTON      PTCLDY    55  50  83 CALM      29.98R
GOLDSBORO      PTCLDY    60  55  85 W2        29.96R
KINSTON        PTCLDY    54  52  94 CALM      29.98R
KENANSVILLE    CLEAR     52  49  92 CALM      29.99S
NEW BERN       PTCLDY    56  52  86 SW3       29.98R
CHERRY POINT   CLEAR     54  49  83 SW7       29.98R
BEAUFORT       CLEAR     62  53  72 W5        29.97R
JACKSONVILLE   CLEAR     55  52  89 CALM      29.98R
WILMINGTON     CLEAR     55  52  89 CALM      29.99R
$$




USA.gov is the U.S. government's official web portal to all federal, state and local government web resources and services.